Whitefield, NH

10:33 PM EDT on August 27, 2016 (GMT -0400)
Mount Washington Regional

Weather History for KHIE - August, 2013

Change the Weather History Date:

Tuesday, August 20, 2013

  Actual Average Record
Temperature  
Mean Temperature 66 °F -  
Max Temperature 81 °F 74 °F 82 °F (2003)
Min Temperature 51 °F 46 °F 32 °F (2007)
Cooling Degree Days 1    
Growing Degree Days 16 (Base 50)    
Moisture  
Dew Point 56 °F    
Average Humidity 73    
Maximum Humidity 90    
Minimum Humidity 42    
Precipitation  
Precipitation 0.00 in - - ()
Sea Level Pressure  
Sea Level Pressure 30.07 in    
Wind  
Wind Speed 1 mph (West)    
Max Wind Speed 9 mph    
Max Gust Speed -    
Visibility 8 miles    
Events      
Averages and records for this station are not official NWS values.
T = Trace of Precipitation, MM = Missing Value Source: NWS Daily Summary

Daily Weather History Graph

Daily Weather History Graph

Search for Another Location

Airport or City:

Trip Planner

Search our weather history database for the weather conditions in past years. The results will help you decide how hot, cold, wet, or windy it might be!

Date:

Astronomy

Aug. 20, 2013 Rise Set
Actual Time 5:55 AM EDT 7:42 PM EDT
Civil Twilight 5:24 AM EDT 8:13 PM EDT
Nautical Twilight 4:46 AM EDT 8:51 PM EDT
Astronomical Twilight 4:05 AM EDT 9:32 PM EDT
Moon 7:09 PM EDT (8/20) 5:22 AM EDT (8/20)
Length of Visible Light 14h 49m
Length of Day
13h 47m
Full, 100% of the Moon is Illuminated
Aug 20
Full
Aug 20
Full
Aug 28
Last Quarter
Sep 5
New
Sep 12
First Quarter

Hourly Weather History & Observations

Time (EDT) Temp. Heat Index Dew Point Humidity Pressure Visibility Wind Dir Wind Speed Gust Speed Precip Events Conditions
12:52 AM 57.0 °F - 54.0 °F 89% 30.02 in 6.0 mi Calm Calm - N/A   Clear
1:52 AM 55.0 °F - 52.0 °F 89% 30.03 in 2.0 mi Calm Calm - N/A   Clear
2:03 AM 55.4 °F - 51.8 °F 88% 30.04 in 7.0 mi Calm Calm - N/A   Clear
2:52 AM 54.0 °F - 51.1 °F 90% 30.04 in 7.0 mi Calm Calm - N/A   Clear
3:52 AM 53.1 °F - 50.0 °F 89% 30.04 in 7.0 mi Calm Calm - N/A   Clear
4:52 AM 52.0 °F - 48.9 °F 89% 30.05 in 7.0 mi Calm Calm - N/A   Clear
5:52 AM 51.1 °F - 48.0 °F 89% 30.06 in 4.0 mi Calm Calm - N/A   Clear
6:52 AM 52.0 °F - 48.9 °F 89% 30.07 in 6.0 mi Calm Calm - N/A   Clear
7:52 AM 57.0 °F - 53.1 °F 87% 30.09 in 6.0 mi Calm Calm - N/A   Clear
8:52 AM 66.0 °F - 59.0 °F 78% 30.09 in 9.0 mi Calm Calm - N/A   Clear
9:52 AM 73.0 °F - 61.0 °F 66% 30.09 in 10.0 mi Calm Calm - N/A   Clear
10:52 AM 75.0 °F - 60.1 °F 60% 30.09 in 10.0 mi Variable 3.5 mph - N/A   Clear
11:52 AM 77.0 °F - 57.9 °F 52% 30.09 in 10.0 mi WNW 6.9 mph - N/A   Clear
12:52 PM 77.0 °F - 59.0 °F 54% 30.08 in 10.0 mi WNW 6.9 mph - N/A   Mostly Cloudy
1:52 PM 80.1 °F 80.7 °F 59.0 °F 48% 30.08 in 10.0 mi West 9.2 mph - N/A   Partly Cloudy
2:52 PM 80.1 °F 80.4 °F 57.0 °F 45% 30.07 in 10.0 mi WSW 9.2 mph - N/A   Scattered Clouds
3:52 PM 81.0 °F 81.1 °F 57.9 °F 45% 30.06 in 10.0 mi West 8.1 mph - N/A   Scattered Clouds
4:52 PM 80.1 °F 80.1 °F 55.0 °F 42% 30.06 in 10.0 mi West 5.8 mph - N/A   Clear
5:52 PM 79.0 °F - 57.0 °F 47% 30.07 in 10.0 mi NW 4.6 mph - N/A   Clear
6:52 PM 75.9 °F - 59.0 °F 56% 30.09 in 10.0 mi Calm Calm - N/A   Partly Cloudy
7:52 PM 71.1 °F - 63.0 °F 75% 30.09 in 10.0 mi Calm Calm - N/A   Overcast
8:52 PM 66.9 °F - 61.0 °F 81% 30.09 in 9.0 mi Calm Calm - N/A   Clear
9:52 PM 63.0 °F - 60.1 °F 90% 30.11 in 7.0 mi Calm Calm - N/A   Clear
10:52 PM 61.0 °F - 57.0 °F 87% 30.11 in 7.0 mi Calm Calm - N/A   Clear
11:52 PM 59.0 °F - 55.9 °F 90% 30.11 in 5.0 mi Calm Calm - 0.00 in   Clear